Change the Weather History Date:

Thursday, January 26, 2012

  Actual Average Record
Temperature  
Mean Temperature 14 °F -  
Max Temperature 24 °F 28 °F 53 °F (2003)
Min Temperature 4 °F 8 °F -43 °F (1997)
Degree Days  
Heating Degree Days 51    
Moisture  
Dew Point 9 °F    
Average Humidity 71    
Maximum Humidity 85    
Minimum Humidity 44    
Precipitation  
Precipitation 0.00 in - - ()
Sea Level Pressure  
Sea Level Pressure 29.90 in    
Wind  
Wind Speed 5 mph ()    
Max Wind Speed 12 mph    
Max Gust Speed -    
Visibility 14.6 miles    
Events Snow    
Averages and records for this station are not official NWS values.
T = Trace of Precipitation, MM = Missing Value Source: Averaged Metar Reports

Daily Weather History Graph

Daily Weather History Graph

Search for Another Location

Airport or City:

Trip Planner

Search our weather history database for the weather conditions in past years. The results will help you decide how hot, cold, wet, or windy it might be!

Date:

Astronomy

Jan. 26, 2012 Rise Set
Actual Time 8:23 AM MST 5:17 PM MST
Civil Twilight 7:46 AM MST 5:53 PM MST
Nautical Twilight 7:06 AM MST 6:34 PM MST
Astronomical Twilight 6:27 AM MST 7:13 PM MST
Moon 9:21 AM MST (1/26) 9:48 PM MST (1/26)
Length of Visible Light 10h 07m
Length of Day
8h 53m
Waxing Crescent, 13% of the Moon is Illuminated
Jan 26
Waxing Crescent
Jan 30
First Quarter
Feb 7
Full
Feb 14
Last Quarter
Feb 21
New

Hourly Weather History & Observations

Time (MST) Temp. Windchill Dew Point Humidity Pressure Visibility Wind Dir Wind Speed Gust Speed Precip Events Conditions
5:00 AM 16 °F - 4 °F 44% 29.87 in 15 mi NNW 2.3 mph - -  
5:00 AM 15.8 °F - 3.2 °F 58% 29.87 in 15.0 mi NNW 2.3 mph - N/A   Clear
6:00 AM 15.8 °F - 5.0 °F 62% 29.85 in 15.0 mi North 2.3 mph - N/A   Clear
8:00 AM 8.6 °F -1.3 °F 3.2 °F 79% 29.81 in 20.0 mi NW 5.8 mph - N/A   Partly Cloudy
9:00 AM 6.8 °F -4.8 °F 1.4 °F 79% 29.79 in 30.0 mi NW 6.9 mph - N/A   Partly Cloudy
10:00 AM 14.0 °F 3.9 °F 6.8 °F 73% 29.79 in 30.0 mi NW 6.9 mph - N/A   Partly Cloudy
11:00 AM 20 °F - 10 °F 54% 29.78 in 28 mi NNW 6.9 mph - -   Scattered Clouds
11:00 AM 19.4 °F 10.4 °F 10.4 °F 68% 29.78 in 30.0 mi NNW 6.9 mph - N/A   Partly Cloudy
12:00 PM 21.2 °F 10.1 °F 8.6 °F 58% 29.81 in 30.0 mi North 10.4 mph - N/A   Scattered Clouds
1:00 PM 21.2 °F 11.7 °F 12.2 °F 68% 29.81 in 20.0 mi North 8.1 mph - N/A   Mostly Cloudy
1:52 PM - - - N/A% - 10.0 mi NW 11.5 mph - N/A   Unknown
2:00 PM 23.0 °F 13.9 °F 15.8 °F 74% 29.84 in 4.0 mi NNW 8.1 mph - N/A Snow Light Snow Showers
2:44 PM - - - N/A% - 15.0 mi NW 10.4 mph - N/A   Mostly Cloudy
3:00 PM 23.0 °F 13.9 °F 17.6 °F 80% 29.87 in 15.0 mi NW 8.1 mph - N/A   Mostly Cloudy
4:00 PM 21.2 °F 13.6 °F 14.0 °F 74% 29.91 in 15.0 mi WNW 5.8 mph - N/A   Mostly Cloudy
5:00 PM 22 °F - 14 °F 60% 29.97 in 15 mi NW 2.3 mph - -   Scattered Clouds
5:00 PM 21.2 °F - 14.0 °F 74% 29.97 in 15.0 mi West 2.3 mph - N/A   Mostly Cloudy
6:00 PM 12.2 °F 4.3 °F 6.8 °F 79% 29.99 in 15.0 mi West 4.6 mph - N/A   Scattered Clouds
7:00 PM 17.6 °F - 12.2 °F 79% 30.01 in 15.0 mi Calm Calm - N/A   Partly Cloudy
8:00 PM 6.8 °F -4.8 °F 3.2 °F 85% 30.12 in 15.0 mi NNW 6.9 mph - N/A   Partly Cloudy
9:00 PM 10.4 °F -1.5 °F 6.8 °F 85% 30.16 in 15.0 mi North 8.1 mph - N/A   Partly Cloudy
10:00 PM 8.6 °F - 5.0 °F 85% 29.93 in 15.0 mi West 2.3 mph - N/A   Partly Cloudy